TimeEST,TemperatureF,Dew PointF,Humidity,Sea Level PressureIn,VisibilityMPH,Wind Direction,Wind SpeedMPH,Gust SpeedMPH,PrecipitationIn,Events,Conditions,WindDirDegrees,DateUTC
12:54 AM,3.0,-5.1,69,30.16,10.0,Calm,Calm,-,N/A,,Clear,0,2013-02-19 05:54:00
1:54 AM,1.9,-6.0,69,30.17,10.0,South,3.5,-,N/A,,Clear,190,2013-02-19 06:54:00
2:54 AM,3.9,-2.9,73,30.18,10.0,Calm,Calm,-,N/A,,Mostly Cloudy,0,2013-02-19 07:54:00
3:54 AM,7.0,-2.9,64,30.17,10.0,Calm,Calm,-,N/A,,Overcast,0,2013-02-19 08:54:00
4:54 AM,8.1,-2.0,64,30.14,10.0,Calm,Calm,-,N/A,,Overcast,0,2013-02-19 09:54:00
5:54 AM,10.0,-0.0,64,30.12,10.0,Calm,Calm,-,N/A,,Mostly Cloudy,0,2013-02-19 10:54:00
6:54 AM,8.1,-0.9,67,30.10,10.0,Calm,Calm,-,N/A,,Clear,0,2013-02-19 11:54:00
7:54 AM,10.0,1.9,70,30.08,10.0,Calm,Calm,-,N/A,,Clear,0,2013-02-19 12:54:00
8:54 AM,17.1,1.0,50,30.05,10.0,South,4.6,-,N/A,,Clear,170,2013-02-19 13:54:00
9:54 AM,23.0,1.0,39,30.02,10.0,South,4.6,-,N/A,,Clear,170,2013-02-19 14:54:00
10:54 AM,28.0,1.0,31,29.97,10.0,SSE,4.6,-,N/A,,Clear,160,2013-02-19 15:54:00
1:54 PM,36.0,10.0,34,29.81,10.0,SW,4.6,-,N/A,,Partly Cloudy,220,2013-02-19 18:54:00
2:54 PM,37.0,14.0,39,29.77,10.0,South,4.6,-,N/A,,Mostly Cloudy,170,2013-02-19 19:54:00
3:54 PM,39.0,18.0,43,29.75,10.0,South,6.9,-,N/A,,Overcast,190,2013-02-19 20:54:00
4:54 PM,39.0,23.0,53,29.72,10.0,South,10.4,25.3,N/A,,Overcast,180,2013-02-19 21:54:00
5:54 PM,37.9,21.9,53,29.71,10.0,South,9.2,19.6,N/A,,Overcast,170,2013-02-19 22:54:00
8:45 PM,35.6,28.4,75,29.63,2.0,Calm,Calm,-,0.00,Snow,Light Snow,0,2013-02-20 01:45:00
8:54 PM,34.0,28.9,82,29.66,2.5,Calm,Calm,-,0.00,Snow,Light Snow,0,2013-02-20 01:54:00
9:21 PM,33.8,30.2,87,29.62,1.2,Calm,Calm,-,0.01,Snow,Light Snow,0,2013-02-20 02:21:00
9:54 PM,33.1,30.9,92,29.65,1.0,Calm,Calm,-,0.03,Snow,Light Snow,0,2013-02-20 02:54:00
10:02 PM,33.8,30.2,87,29.61,1.0,Calm,Calm,-,0.01,Snow,Light Snow,0,2013-02-20 03:02:00
10:08 PM,33.8,30.2,87,29.60,0.8,NNW,3.5,-,0.01,Snow,Light Snow,330,2013-02-20 03:08:00
10:13 PM,33.8,30.2,87,29.59,0.8,Calm,Calm,-,0.01,Snow,Light Snow,0,2013-02-20 03:13:00
10:26 PM,33.8,30.2,87,29.59,1.0,Calm,Calm,-,0.02,Snow,Light Snow,0,2013-02-20 03:26:00
10:46 PM,33.8,30.2,87,29.59,1.2,Calm,Calm,-,0.02,Snow,Light Snow,0,2013-02-20 03:46:00
10:54 PM,33.1,30.9,92,29.61,1.2,Calm,Calm,-,0.02,Snow,Light Snow,0,2013-02-20 03:54:00
11:01 PM,33.8,30.2,87,29.59,1.0,Calm,Calm,-,0.00,Snow,Light Snow,0,2013-02-20 04:01:00
11:14 PM,33.8,30.2,87,29.58,1.2,Calm,Calm,-,0.01,Snow,Light Snow,0,2013-02-20 04:14:00
11:21 PM,33.8,30.2,87,29.58,1.0,Calm,Calm,-,0.01,Snow,Light Snow,0,2013-02-20 04:21:00
11:31 PM,32.0,30.2,93,29.58,0.8,Calm,Calm,-,0.02,Snow,Light Snow,0,2013-02-20 04:31:00
11:54 PM,32.0,30.9,96,29.61,0.8,Calm,Calm,-,0.03,Snow,Light Snow,0,2013-02-20 04:54:00